Time,TemperatureF,DewpointF,PressureIn,WindDirection,WindDirectionDegrees,WindSpeedMPH,WindSpeedGustMPH,Humidity,HourlyPrecipIn,Conditions,Clouds,dailyrainin,SoftwareType,DateUTC
2013-05-01 00:01:00,52.7,-0.3,28.85,West,262,2.7,2.7,11,0.00,,,0.00,VWS V13.01,2013-05-01 05:01:00,
2013-05-01 00:06:00,52.5,-0.5,28.85,WNW,302,0.0,3.1,11,0.00,,,0.00,VWS V13.01,2013-05-01 05:06:00,
2013-05-01 00:11:00,52.5,-0.5,28.88,NW,307,3.6,3.6,11,0.00,,,0.00,VWS V13.01,2013-05-01 05:11:00,
2013-05-01 00:16:00,52.2,-0.8,28.88,SSW,207,3.6,3.6,11,0.00,,,0.00,VWS V13.01,2013-05-01 05:16:00,
2013-05-01 00:21:00,52.0,-0.9,28.88,WSW,250,4.9,4.9,11,0.00,,,0.00,VWS V13.01,2013-05-01 05:21:00,
2013-05-01 00:26:00,52.0,-0.9,28.88,NW,304,5.4,5.4,11,0.00,,,0.00,VWS V13.01,2013-05-01 05:26:00,
2013-05-01 00:31:00,51.8,-1.0,28.88,WNW,302,2.7,4.9,11,0.00,,,0.00,VWS V13.01,2013-05-01 05:31:00,
2013-05-01 00:36:00,51.8,-1.0,28.88,NW,308,0.0,4.0,11,0.00,,,0.00,VWS V13.01,2013-05-01 05:36:00,
2013-05-01 00:41:00,51.6,-1.2,28.85,NW,310,2.2,4.0,11,0.00,,,0.00,VWS V13.01,2013-05-01 05:41:00,
2013-05-01 00:46:00,51.4,-1.3,28.85,West,275,2.7,2.7,11,0.00,,,0.00,VWS V13.01,2013-05-01 05:46:00,
2013-05-01 00:51:00,51.4,-1.3,28.85,SSW,211,3.1,10.1,11,0.00,,,0.00,VWS V13.01,2013-05-01 05:51:00,
2013-05-01 00:56:00,51.4,-1.3,28.88,WNW,289,3.1,5.4,11,0.00,,,0.00,VWS V13.01,2013-05-01 05:56:00,
2013-05-01 01:01:00,51.3,-1.5,28.88,SW,218,2.7,2.7,11,0.00,,,0.00,VWS V13.01,2013-05-01 06:01:00,
2013-05-01 01:06:00,51.1,-1.6,28.88,WNW,300,3.1,3.1,11,0.00,,,0.00,VWS V13.01,2013-05-01 06:06:00,
2013-05-01 01:11:00,50.9,-1.7,28.88,WNW,284,0.0,2.2,11,0.00,,,0.00,VWS V13.01,2013-05-01 06:11:00,
2013-05-01 01:16:00,50.9,-1.7,28.88,NW,315,4.9,5.4,11,0.00,,,0.00,VWS V13.01,2013-05-01 06:16:00,
2013-05-01 01:21:00,50.9,-1.7,28.88,NW,306,4.0,6.3,11,0.00,,,0.00,VWS V13.01,2013-05-01 06:21:00,
2013-05-01 01:26:00,50.7,-1.9,28.88,NW,308,3.1,4.0,11,0.00,,,0.00,VWS V13.01,2013-05-01 06:26:00,
2013-05-01 01:31:00,50.5,-2.0,28.88,West,280,3.1,3.6,11,0.00,,,0.00,VWS V13.01,2013-05-01 06:31:00,
2013-05-01 01:36:00,50.4,-2.2,28.88,NW,319,2.2,3.1,11,0.00,,,0.00,VWS V13.01,2013-05-01 06:36:00,
2013-05-01 01:41:00,50.2,-2.3,28.91,WNW,296,2.7,2.7,11,0.00,,,0.00,VWS V13.01,2013-05-01 06:41:00,
2013-05-01 01:46:00,49.8,-2.6,28.91,NW,317,7.6,7.6,11,0.00,,,0.00,VWS V13.01,2013-05-01 06:46:00,
2013-05-01 01:51:00,49.8,-2.6,28.91,West,272,6.3,6.3,11,0.00,,,0.00,VWS V13.01,2013-05-01 06:51:00,
2013-05-01 01:56:00,49.6,-2.7,28.91,NW,313,3.1,3.1,11,0.00,,,0.00,VWS V13.01,2013-05-01 06:56:00,
2013-05-01 02:01:00,49.5,-2.9,28.91,NNW,341,4.0,5.8,11,0.00,,,0.00,VWS V13.01,2013-05-01 07:01:00,
2013-05-01 02:06:00,49.3,-3.0,28.91,West,267,4.0,5.4,11,0.00,,,0.00,VWS V13.01,2013-05-01 07:06:00,
2013-05-01 02:11:00,48.9,-3.3,28.91,NW,312,0.0,0.0,11,0.00,,,0.00,VWS V13.01,2013-05-01 07:11:00,
2013-05-01 02:16:00,48.7,-3.4,28.94,WNW,291,2.2,2.2,11,0.00,,,0.00,VWS V13.01,2013-05-01 07:16:00,
2013-05-01 02:21:00,48.6,-3.6,28.94,NW,320,2.7,3.6,11,0.00,,,0.00,VWS V13.01,2013-05-01 07:21:00,
2013-05-01 02:26:00,48.2,-3.8,28.94,North,350,2.7,3.6,11,0.00,,,0.00,VWS V13.01,2013-05-01 07:26:00,
2013-05-01 02:31:00,48.0,-2.2,28.94,West,264,3.1,3.1,12,0.00,,,0.00,VWS V13.01,2013-05-01 07:31:00,
2013-05-01 02:36:00,48.0,-2.2,28.94,West,279,3.1,3.1,12,0.00,,,0.00,VWS V13.01,2013-05-01 07:36:00,
2013-05-01 02:41:00,47.5,-2.6,28.94,NNW,338,6.3,6.3,12,0.00,,,0.00,VWS V13.01,2013-05-01 07:41:00,
2013-05-01 02:46:00,47.5,-2.6,28.94,NNW,331,2.2,5.4,12,0.00,,,0.00,VWS V13.01,2013-05-01 07:46:00,
2013-05-01 02:51:00,47.5,-2.6,28.94,NW,316,2.2,2.2,12,0.00,,,0.00,VWS V13.01,2013-05-01 07:51:00,
2013-05-01 02:56:00,47.3,-2.7,28.94,NW,325,3.6,3.6,12,0.00,,,0.00,VWS V13.01,2013-05-01 07:56:00,
2013-05-01 03:01:00,46.9,-3.0,28.94,NW,305,0.0,2.2,12,0.00,,,0.00,VWS V13.01,2013-05-01 08:01:00,
2013-05-01 03:06:00,45.9,-3.9,28.94,WNW,301,2.7,6.3,12,0.00,,,0.00,VWS V13.01,2013-05-01 08:06:00,
2013-05-01 03:11:00,45.3,-4.3,28.94,WNW,297,0.0,0.0,12,0.00,,,0.00,VWS V13.01,2013-05-01 08:11:00,
2013-05-01 03:16:00,45.7,-4.0,28.94,NW,309,3.6,3.6,12,0.00,,,0.00,VWS V13.01,2013-05-01 08:16:00,
2013-05-01 03:21:00,46.2,-3.6,28.94,NW,304,2.7,3.6,12,0.00,,,0.00,VWS V13.01,2013-05-01 08:21:00,
2013-05-01 03:26:00,46.2,-3.6,28.94,WNW,282,2.7,3.1,12,0.00,,,0.00,VWS V13.01,2013-05-01 08:26:00,
2013-05-01 03:31:00,46.4,-3.4,28.94,West,270,5.4,5.4,12,0.00,,,0.00,VWS V13.01,2013-05-01 08:31:00,
2013-05-01 03:36:00,46.2,-3.6,28.94,NNW,328,5.4,6.3,12,0.00,,,0.00,VWS V13.01,2013-05-01 08:36:00,
2013-05-01 03:41:00,46.0,-3.7,28.94,NNW,331,4.0,4.0,12,0.00,,,0.00,VWS V13.01,2013-05-01 08:41:00,
2013-05-01 03:46:00,45.9,-3.9,28.94,WSW,244,3.6,4.0,12,0.00,,,0.00,VWS V13.01,2013-05-01 08:46:00,
2013-05-01 03:51:00,45.7,-4.0,28.94,West,264,2.7,3.1,12,0.00,,,0.00,VWS V13.01,2013-05-01 08:51:00,
2013-05-01 03:56:00,45.5,-4.2,28.94,WNW,295,5.4,5.4,12,0.00,,,0.00,VWS V13.01,2013-05-01 08:56:00,
2013-05-01 04:01:00,45.1,-4.4,28.94,WSW,239,4.0,5.4,12,0.00,,,0.00,VWS V13.01,2013-05-01 09:01:00,
2013-05-01 04:06:00,44.1,-3.6,28.94,WNW,290,2.7,3.1,13,0.00,,,0.00,VWS V13.01,2013-05-01 09:06:00,
2013-05-01 04:11:00,42.4,-4.9,28.97,WNW,294,0.0,6.3,13,0.00,,,0.00,VWS V13.01,2013-05-01 09:11:00,
2013-05-01 04:16:00,41.0,-6.1,28.97,SW,225,3.1,3.6,13,0.00,,,0.00,VWS V13.01,2013-05-01 09:16:00,
2013-05-01 04:21:00,40.1,-6.8,28.97,West,278,2.2,3.6,13,0.00,,,0.00,VWS V13.01,2013-05-01 09:21:00,
2013-05-01 04:26:00,39.6,-7.2,28.97,WNW,286,0.0,0.0,13,0.00,,,0.00,VWS V13.01,2013-05-01 09:26:00,
2013-05-01 04:31:00,39.4,-3.1,28.97,WNW,286,0.0,0.0,16,0.00,,,0.00,VWS V13.01,2013-05-01 09:31:00,
2013-05-01 04:37:00,39.2,-3.2,28.97,WNW,286,0.0,0.0,16,0.00,,,0.00,VWS V13.01,2013-05-01 09:37:00,
2013-05-01 04:42:00,39.2,-0.7,28.97,WNW,286,0.0,0.0,18,0.00,,,0.00,VWS V13.01,2013-05-01 09:42:00,
2013-05-01 04:47:00,39.2,-0.7,28.97,WNW,286,0.0,0.0,18,0.00,,,0.00,VWS V13.01,2013-05-01 09:47:00,
2013-05-01 04:52:00,39.0,2.4,28.97,WNW,286,0.0,0.0,21,0.00,,,0.00,VWS V13.01,2013-05-01 09:52:00,
2013-05-01 04:57:00,39.2,2.6,28.97,WNW,286,0.0,0.0,21,0.00,,,0.00,VWS V13.01,2013-05-01 09:57:00,
2013-05-01 05:02:00,39.2,8.9,28.97,WNW,286,0.0,0.0,28,0.00,,,0.00,VWS V13.01,2013-05-01 10:02:00,
2013-05-01 05:07:00,39.4,9.8,28.97,WNW,286,0.0,0.0,29,0.00,,,0.00,VWS V13.01,2013-05-01 10:07:00,
2013-05-01 05:12:00,39.6,10.7,29.00,WSW,243,0.0,0.0,30,0.00,,,0.00,VWS V13.01,2013-05-01 10:12:00,
2013-05-01 05:17:00,39.7,10.9,29.00,WSW,243,0.0,0.0,30,0.00,,,0.00,VWS V13.01,2013-05-01 10:17:00,
2013-05-01 05:22:00,39.7,11.6,29.00,West,265,0.0,0.0,31,0.00,,,0.00,VWS V13.01,2013-05-01 10:22:00,
2013-05-01 05:27:00,39.7,13.0,29.00,West,269,0.0,0.0,33,0.00,,,0.00,VWS V13.01,2013-05-01 10:27:00,
2013-05-01 05:32:00,39.6,13.5,29.00,West,277,0.0,0.0,34,0.00,,,0.00,VWS V13.01,2013-05-01 10:32:00,
2013-05-01 05:37:00,39.4,14.0,29.00,SW,233,0.0,3.1,35,0.00,,,0.00,VWS V13.01,2013-05-01 10:37:00,
2013-05-01 05:42:00,39.2,14.5,29.03,WNW,284,0.0,0.0,36,0.00,,,0.00,VWS V13.01,2013-05-01 10:42:00,
2013-05-01 05:47:00,39.0,15.0,29.03,NW,318,3.6,3.6,37,0.00,,,0.00,VWS V13.01,2013-05-01 10:47:00,
2013-05-01 05:52:00,38.8,14.8,29.03,NW,316,0.0,0.0,37,0.00,,,0.00,VWS V13.01,2013-05-01 10:52:00,
2013-05-01 05:57:00,38.5,15.1,29.03,West,265,0.0,0.0,38,0.00,,,0.00,VWS V13.01,2013-05-01 10:57:00,
2013-05-01 06:02:00,38.3,14.9,29.03,NW,316,0.0,0.0,38,0.00,,,0.00,VWS V13.01,2013-05-01 11:02:00,
2013-05-01 06:07:00,38.1,14.2,29.03,NW,323,3.6,3.6,37,0.00,,,0.00,VWS V13.01,2013-05-01 11:07:00,
2013-05-01 06:12:00,38.1,14.2,29.03,WNW,300,0.0,0.0,37,0.00,,,0.00,VWS V13.01,2013-05-01 11:12:00,
2013-05-01 06:17:00,38.1,13.5,29.03,NW,305,0.0,0.0,36,0.00,,,0.00,VWS V13.01,2013-05-01 11:17:00,
2013-05-01 06:22:00,38.3,13.7,29.03,NW,312,4.9,4.9,36,0.00,,,0.00,VWS V13.01,2013-05-01 11:22:00,
2013-05-01 06:27:00,38.8,10.1,29.06,West,273,2.2,3.1,30,0.00,,,0.00,VWS V13.01,2013-05-01 11:27:00,
2013-05-01 06:32:00,39.2,4.5,29.06,WNW,303,3.6,4.0,23,0.00,,,0.00,VWS V13.01,2013-05-01 11:32:00,
2013-05-01 06:37:00,39.4,-0.6,29.06,NNW,348,3.1,4.5,18,0.00,,,0.00,VWS V13.01,2013-05-01 11:37:00,
2013-05-01 06:42:00,39.6,-2.9,29.06,WSW,258,2.7,2.7,16,0.00,,,0.00,VWS V13.01,2013-05-01 11:42:00,
2013-05-01 06:47:00,39.7,-2.8,29.06,West,278,0.0,3.6,16,0.00,,,0.00,VWS V13.01,2013-05-01 11:47:00,
2013-05-01 06:52:00,39.9,-2.6,29.06,NW,318,2.2,4.9,16,0.00,,,0.00,VWS V13.01,2013-05-01 11:52:00,
2013-05-01 06:57:00,39.9,-2.6,29.09,NW,304,2.7,2.7,16,0.00,,,0.00,VWS V13.01,2013-05-01 11:57:00,
2013-05-01 07:02:00,39.9,-2.6,29.09,WNW,303,3.6,3.6,16,0.00,,,0.00,VWS V13.01,2013-05-01 12:02:00,
2013-05-01 07:07:00,39.7,-2.8,29.09,NW,307,2.7,2.7,16,0.00,,,0.00,VWS V13.01,2013-05-01 12:07:00,
2013-05-01 07:12:00,39.7,-2.8,29.12,SW,227,4.9,4.9,16,0.00,,,0.00,VWS V13.01,2013-05-01 12:12:00,
2013-05-01 07:17:00,39.4,-3.1,29.12,WNW,293,4.0,4.0,16,0.00,,,0.00,VWS V13.01,2013-05-01 12:17:00,
2013-05-01 07:22:00,38.1,-4.1,29.12,NW,309,2.7,4.9,16,0.00,,,0.00,VWS V13.01,2013-05-01 12:22:00,
2013-05-01 07:27:00,37.0,-1.4,29.12,NW,325,2.7,4.9,19,0.00,,,0.00,VWS V13.01,2013-05-01 12:27:00,
2013-05-01 07:32:00,36.0,2.7,29.12,WNW,303,3.1,3.1,24,0.00,,,0.00,VWS V13.01,2013-05-01 12:32:00,
2013-05-01 07:37:00,35.2,6.9,29.12,NW,305,0.0,0.0,30,0.00,,,0.00,VWS V13.01,2013-05-01 12:37:00,
2013-05-01 07:42:00,34.5,7.0,29.12,NW,319,4.0,4.0,31,0.00,,,0.00,VWS V13.01,2013-05-01 12:42:00,
2013-05-01 07:47:00,33.8,7.8,29.12,WNW,290,2.7,4.0,33,0.00,,,0.00,VWS V13.01,2013-05-01 12:47:00,
2013-05-01 07:52:00,33.3,7.9,29.12,WNW,284,2.2,2.2,34,0.00,,,0.00,VWS V13.01,2013-05-01 12:52:00,
2013-05-01 07:57:00,33.1,9.1,29.12,WNW,298,3.6,3.6,36,0.00,,,0.00,VWS V13.01,2013-05-01 12:57:00,
2013-05-01 08:02:00,33.1,10.2,29.12,West,267,2.7,2.7,38,0.00,,,0.00,VWS V13.01,2013-05-01 13:02:00,
2013-05-01 08:07:00,32.9,10.7,29.12,West,264,0.0,4.9,39,0.00,,,0.00,VWS V13.01,2013-05-01 13:07:00,
2013-05-01 08:12:00,33.1,11.4,29.15,WNW,282,0.0,4.0,40,0.00,,,0.00,VWS V13.01,2013-05-01 13:12:00,
2013-05-01 08:17:00,32.9,11.2,29.15,West,269,0.0,0.0,40,0.00,,,0.00,VWS V13.01,2013-05-01 13:17:00,
2013-05-01 08:22:00,32.9,11.2,29.15,West,275,0.0,2.2,40,0.00,,,0.00,VWS V13.01,2013-05-01 13:22:00,
2013-05-01 08:27:00,33.1,11.4,29.15,West,275,0.0,0.0,40,0.00,,,0.00,VWS V13.01,2013-05-01 13:27:00,
2013-05-01 08:32:00,33.1,11.4,29.15,West,275,0.0,0.0,40,0.00,,,0.00,VWS V13.01,2013-05-01 13:32:00,
2013-05-01 08:37:00,33.1,11.4,29.15,WNW,289,0.0,0.0,40,0.00,,,0.00,VWS V13.01,2013-05-01 13:37:00,
2013-05-01 08:42:00,33.1,11.4,29.15,West,264,0.0,0.0,40,0.00,,,0.00,VWS V13.01,2013-05-01 13:42:00,
2013-05-01 08:47:00,33.1,11.4,29.15,West,264,0.0,0.0,40,0.00,,,0.00,VWS V13.01,2013-05-01 13:47:00,
2013-05-01 08:52:00,33.1,11.4,29.15,NW,326,0.0,0.0,40,0.00,,,0.00,VWS V13.01,2013-05-01 13:52:00,
2013-05-01 08:57:00,33.1,12.0,29.15,WNW,302,0.0,0.0,41,0.00,,,0.00,VWS V13.01,2013-05-01 13:57:00,
2013-05-01 09:02:00,33.3,12.1,29.15,NNW,335,0.0,0.0,41,0.00,,,0.00,VWS V13.01,2013-05-01 14:02:00,
2013-05-01 09:07:00,33.3,12.1,29.15,WSW,242,0.0,0.0,41,0.00,,,0.00,VWS V13.01,2013-05-01 14:07:00,
2013-05-01 09:12:00,33.3,12.1,29.15,West,270,2.2,2.2,41,0.00,,,0.00,VWS V13.01,2013-05-01 14:12:00,
2013-05-01 09:17:00,33.4,12.3,29.15,West,263,0.0,0.0,41,0.00,,,0.00,VWS V13.01,2013-05-01 14:17:00,
2013-05-01 09:22:00,33.3,12.1,29.15,West,271,0.0,0.0,41,0.00,,,0.00,VWS V13.01,2013-05-01 14:22:00,
2013-05-01 09:27:00,33.4,12.3,29.15,West,271,0.0,0.0,41,0.00,,,0.00,VWS V13.01,2013-05-01 14:27:00,
2013-05-01 09:32:00,33.4,12.3,29.15,NW,307,0.0,0.0,41,0.00,,,0.00,VWS V13.01,2013-05-01 14:32:00,
2013-05-01 09:37:00,33.4,12.3,29.15,WNW,282,0.0,0.0,41,0.00,,,0.00,VWS V13.01,2013-05-01 14:37:00,
2013-05-01 09:42:00,33.4,12.3,29.15,NW,315,0.0,0.0,41,0.00,,,0.00,VWS V13.01,2013-05-01 14:42:00,
2013-05-01 09:47:00,33.4,12.3,29.15,WSW,246,0.0,0.0,41,0.00,,,0.00,VWS V13.01,2013-05-01 14:47:00,
2013-05-01 09:52:00,33.4,12.3,29.15,NW,310,2.7,3.6,41,0.00,,,0.00,VWS V13.01,2013-05-01 14:52:00,
2013-05-01 09:57:00,33.6,12.4,29.15,West,265,0.0,0.0,41,0.00,,,0.00,VWS V13.01,2013-05-01 14:57:00,
2013-05-01 10:02:00,33.6,12.4,29.15,WNW,295,0.0,0.0,41,0.00,,,0.00,VWS V13.01,2013-05-01 15:02:00,
2013-05-01 10:07:00,33.8,12.6,29.15,WNW,295,0.0,0.0,41,0.00,,,0.00,VWS V13.01,2013-05-01 15:07:00,
2013-05-01 10:12:00,34.0,12.8,29.15,SSW,196,0.0,0.0,41,0.00,,,0.00,VWS V13.01,2013-05-01 15:12:00,
2013-05-01 10:17:00,34.0,12.2,29.15,West,261,0.0,0.0,40,0.00,,,0.00,VWS V13.01,2013-05-01 15:17:00,
2013-05-01 10:22:00,34.0,12.8,29.15,West,261,0.0,0.0,41,0.00,,,0.00,VWS V13.01,2013-05-01 15:22:00,
2013-05-01 10:27:00,34.2,12.9,29.15,West,261,0.0,0.0,41,0.00,,,0.00,VWS V13.01,2013-05-01 15:27:00,
2013-05-01 10:32:00,34.0,12.2,29.15,WNW,290,0.0,0.0,40,0.00,,,0.00,VWS V13.01,2013-05-01 15:32:00,
2013-05-01 10:37:00,33.8,12.1,29.15,WNW,290,0.0,0.0,40,0.00,,,0.00,VWS V13.01,2013-05-01 15:37:00,
2013-05-01 10:42:00,33.8,12.1,29.15,WNW,290,0.0,0.0,40,0.00,,,0.00,VWS V13.01,2013-05-01 15:42:00,
2013-05-01 10:47:00,34.0,12.2,29.15,West,281,0.0,0.0,40,0.00,,,0.00,VWS V13.01,2013-05-01 15:47:00,
2013-05-01 10:52:00,34.3,13.1,29.15,WSW,257,0.0,0.0,41,0.00,,,0.00,VWS V13.01,2013-05-01 15:52:00,
2013-05-01 10:57:00,34.5,13.3,29.18,WSW,257,0.0,0.0,41,0.00,,,0.00,VWS V13.01,2013-05-01 15:57:00,
2013-05-01 11:02:00,34.9,13.6,29.18,WNW,291,0.0,0.0,41,0.00,,,0.00,VWS V13.01,2013-05-01 16:02:00,
2013-05-01 11:07:00,35.1,13.8,29.18,West,273,0.0,0.0,41,0.00,,,0.00,VWS V13.01,2013-05-01 16:07:00,
2013-05-01 11:12:00,35.2,13.9,29.18,NNW,329,0.0,0.0,41,0.00,,,0.00,VWS V13.01,2013-05-01 16:12:00,
2013-05-01 11:17:00,35.1,13.8,29.18,WNW,296,0.0,2.2,41,0.00,,,0.00,VWS V13.01,2013-05-01 16:17:00,
2013-05-01 11:22:00,34.9,13.6,29.18,NW,308,0.0,4.9,41,0.00,,,0.00,VWS V13.01,2013-05-01 16:22:00,
2013-05-01 11:27:00,35.1,13.8,29.18,WNW,293,0.0,0.0,41,0.00,,,0.00,VWS V13.01,2013-05-01 16:27:00,
2013-05-01 11:32:00,35.1,13.8,29.18,NW,305,3.1,4.0,41,0.00,,,0.00,VWS V13.01,2013-05-01 16:32:00,
2013-05-01 11:37:00,34.7,13.4,29.18,NW,321,2.7,2.7,41,0.00,,,0.00,VWS V13.01,2013-05-01 16:37:00,
2013-05-01 11:42:00,34.7,13.4,29.18,NW,318,2.7,2.7,41,0.04,,,0.04,VWS V13.01,2013-05-01 16:42:00,
2013-05-01 11:47:00,35.1,14.3,29.18,West,276,2.7,2.7,42,0.04,,,0.04,VWS V13.01,2013-05-01 16:47:00,
2013-05-01 11:52:00,35.4,14.6,29.18,WNW,293,0.0,0.0,42,0.04,,,0.04,VWS V13.01,2013-05-01 16:52:00,
2013-05-01 11:57:00,35.4,14.1,29.18,WNW,293,0.0,0.0,41,0.08,,,0.08,VWS V13.01,2013-05-01 16:57:00,
2013-05-01 12:02:00,35.6,10.0,29.18,West,263,0.0,0.0,34,0.08,,,0.08,VWS V13.01,2013-05-01 17:02:00,
2013-05-01 12:07:00,35.1,8.2,29.18,West,278,3.6,3.6,32,0.08,,,0.08,VWS V13.01,2013-05-01 17:07:00,
2013-05-01 12:12:00,35.1,6.8,29.18,NW,316,4.0,4.0,30,0.08,,,0.08,VWS V13.01,2013-05-01 17:12:00,
2013-05-01 12:17:00,35.4,7.1,29.18,WNW,296,5.4,5.4,30,0.08,,,0.08,VWS V13.01,2013-05-01 17:17:00,
2013-05-01 12:22:00,35.1,0.1,29.18,NW,307,2.7,2.7,22,0.08,,,0.08,VWS V13.01,2013-05-01 17:22:00,
2013-05-01 12:27:00,35.2,-1.8,29.18,SW,218,2.7,3.6,20,0.08,,,0.08,VWS V13.01,2013-05-01 17:27:00,
2013-05-01 12:32:00,35.1,-2.0,29.18,West,275,0.0,3.1,20,0.08,,,0.08,VWS V13.01,2013-05-01 17:32:00,
2013-05-01 12:37:00,35.2,0.2,29.18,NNW,341,0.0,0.0,22,0.08,,,0.08,VWS V13.01,2013-05-01 17:37:00,
2013-05-01 12:42:00,35.4,0.4,29.18,WNW,291,0.0,0.0,22,0.08,,,0.12,VWS V13.01,2013-05-01 17:42:00,
2013-05-01 12:47:00,35.6,0.5,29.18,NW,312,2.2,2.2,22,0.08,,,0.12,VWS V13.01,2013-05-01 17:47:00,
2013-05-01 12:52:00,36.1,-2.1,29.18,WNW,284,3.1,3.1,19,0.08,,,0.12,VWS V13.01,2013-05-01 17:52:00,
2013-05-01 12:57:00,37.0,-3.7,29.18,West,280,0.0,0.0,17,0.08,,,0.12,VWS V13.01,2013-05-01 17:57:00,
2013-05-01 13:02:00,37.4,-4.7,29.18,WNW,286,0.0,3.1,16,0.04,,,0.12,VWS V13.01,2013-05-01 18:02:00,
2013-05-01 13:07:00,37.8,-4.4,29.18,North,353,3.6,3.6,16,0.04,,,0.12,VWS V13.01,2013-05-01 18:07:00,
2013-05-01 13:12:00,37.9,-7.0,29.21,WNW,282,0.0,0.0,14,0.04,,,0.12,VWS V13.01,2013-05-01 18:12:00,
2013-05-01 13:17:00,38.8,-6.3,29.21,North,353,3.6,5.4,14,0.04,,,0.12,VWS V13.01,2013-05-01 18:17:00,
2013-05-01 13:22:00,39.0,-6.1,29.21,West,270,3.6,4.0,14,0.04,,,0.12,VWS V13.01,2013-05-01 18:22:00,
2013-05-01 13:27:00,39.4,-7.4,29.18,NNE,12,2.7,3.1,13,0.04,,,0.12,VWS V13.01,2013-05-01 18:27:00,
2013-05-01 13:32:00,39.7,-7.1,29.18,NW,311,0.0,2.7,13,0.04,,,0.12,VWS V13.01,2013-05-01 18:32:00,
2013-05-01 13:37:00,41.0,-6.1,29.18,WNW,297,0.0,2.2,13,0.04,,,0.12,VWS V13.01,2013-05-01 18:37:00,
2013-05-01 13:42:00,41.9,-5.3,29.21,North,0,2.7,3.1,13,0.00,,,0.12,VWS V13.01,2013-05-01 18:42:00,
2013-05-01 13:47:00,41.4,-5.8,29.21,West,271,2.7,3.1,13,0.00,,,0.12,VWS V13.01,2013-05-01 18:47:00,
2013-05-01 13:52:00,41.0,-6.1,29.21,NW,319,2.2,2.2,13,0.00,,,0.12,VWS V13.01,2013-05-01 18:52:00,
2013-05-01 13:57:00,40.8,-6.2,29.21,North,357,3.1,3.1,13,0.00,,,0.12,VWS V13.01,2013-05-01 18:57:00,
2013-05-01 14:02:00,40.8,-6.2,29.21,South,186,2.7,2.7,13,0.00,,,0.12,VWS V13.01,2013-05-01 19:02:00,
2013-05-01 14:07:00,41.2,-5.9,29.21,WNW,302,4.0,4.0,13,0.00,,,0.12,VWS V13.01,2013-05-01 19:07:00,
2013-05-01 14:12:00,41.4,-5.8,29.18,West,277,2.2,2.7,13,0.00,,,0.12,VWS V13.01,2013-05-01 19:12:00,
2013-05-01 14:17:00,41.4,-5.8,29.18,WNW,303,3.1,3.1,13,0.00,,,0.12,VWS V13.01,2013-05-01 19:17:00,
2013-05-01 14:22:00,41.5,-5.6,29.18,NW,322,2.2,2.2,13,0.00,,,0.12,VWS V13.01,2013-05-01 19:22:00,
2013-05-01 14:27:00,41.5,-5.6,29.21,NW,316,4.9,4.9,13,0.00,,,0.12,VWS V13.01,2013-05-01 19:27:00,
2013-05-01 14:32:00,41.7,-5.5,29.21,WNW,299,3.1,3.1,13,0.00,,,0.12,VWS V13.01,2013-05-01 19:32:00,
2013-05-01 14:37:00,41.4,-5.8,29.21,SSW,208,4.0,4.0,13,0.00,,,0.12,VWS V13.01,2013-05-01 19:37:00,
2013-05-01 14:42:00,41.4,-5.8,29.18,WNW,288,4.5,4.5,13,0.00,,,0.12,VWS V13.01,2013-05-01 19:42:00,
2013-05-01 14:47:00,41.4,-5.8,29.18,WNW,297,3.1,3.1,13,0.00,,,0.12,VWS V13.01,2013-05-01 19:47:00,
2013-05-01 14:52:00,41.4,-5.8,29.18,WNW,288,4.0,8.1,13,0.00,,,0.12,VWS V13.01,2013-05-01 19:52:00,
2013-05-01 14:57:00,41.5,-5.6,29.21,NW,305,4.0,4.0,13,0.00,,,0.12,VWS V13.01,2013-05-01 19:57:00,
2013-05-01 15:02:00,42.1,-5.2,29.21,NNW,336,2.2,2.7,13,0.00,,,0.12,VWS V13.01,2013-05-01 20:02:00,
2013-05-01 15:07:00,42.3,-5.1,29.21,NW,307,5.4,5.4,13,0.00,,,0.12,VWS V13.01,2013-05-01 20:07:00,
2013-05-01 15:12:00,42.4,-4.9,29.21,North,353,2.7,3.6,13,0.00,,,0.12,VWS V13.01,2013-05-01 20:12:00,
2013-05-01 15:18:00,41.5,-5.6,29.21,NW,305,6.3,8.3,13,0.00,,,0.12,VWS V13.01,2013-05-01 20:18:00,
2013-05-01 15:23:00,41.2,-5.9,29.21,SSW,202,3.6,3.6,13,0.00,,,0.12,VWS V13.01,2013-05-01 20:23:00,
2013-05-01 15:28:00,40.6,-6.4,29.21,WNW,302,4.0,5.8,13,0.00,,,0.12,VWS V13.01,2013-05-01 20:28:00,
2013-05-01 15:33:00,40.5,-6.5,29.21,NNW,343,5.4,5.4,13,0.00,,,0.12,VWS V13.01,2013-05-01 20:33:00,
2013-05-01 15:38:00,40.5,-6.5,29.21,NW,321,5.8,5.8,13,0.00,,,0.12,VWS V13.01,2013-05-01 20:38:00,
2013-05-01 15:43:00,40.3,-6.7,29.21,NNW,328,2.7,2.7,13,0.00,,,0.12,VWS V13.01,2013-05-01 20:43:00,
2013-05-01 15:48:00,40.1,-6.8,29.21,West,277,5.8,5.8,13,0.00,,,0.12,VWS V13.01,2013-05-01 20:48:00,
2013-05-01 15:53:00,40.3,-6.7,29.21,North,1,2.7,2.7,13,0.00,,,0.12,VWS V13.01,2013-05-01 20:53:00,
2013-05-01 15:58:00,40.3,-6.7,29.21,NNW,330,4.0,4.0,13,0.00,,,0.12,VWS V13.01,2013-05-01 20:58:00,
2013-05-01 16:03:00,40.5,-6.5,29.21,WNW,290,2.7,3.6,13,0.00,,,0.12,VWS V13.01,2013-05-01 21:03:00,
2013-05-01 16:08:00,40.5,-6.5,29.21,NW,324,2.7,3.6,13,0.00,,,0.12,VWS V13.01,2013-05-01 21:08:00,
2013-05-01 16:13:00,40.6,-6.4,29.21,NW,317,3.1,3.6,13,0.00,,,0.12,VWS V13.01,2013-05-01 21:13:00,
2013-05-01 16:18:00,41.0,-6.1,29.21,NW,315,0.0,0.0,13,0.00,,,0.12,VWS V13.01,2013-05-01 21:18:00,
2013-05-01 16:23:00,41.2,-5.9,29.21,North,357,0.0,2.7,13,0.00,,,0.12,VWS V13.01,2013-05-01 21:23:00,
2013-05-01 16:28:00,41.5,-5.6,29.23,NW,306,2.7,3.1,13,0.00,,,0.12,VWS V13.01,2013-05-01 21:28:00,
2013-05-01 16:33:00,41.5,-5.6,29.23,WNW,295,0.0,3.1,13,0.00,,,0.12,VWS V13.01,2013-05-01 21:33:00,
2013-05-01 16:38:00,41.4,-5.8,29.23,NW,311,2.7,3.6,13,0.00,,,0.12,VWS V13.01,2013-05-01 21:38:00,
2013-05-01 16:43:00,41.2,-5.9,29.23,WNW,284,2.2,3.1,13,0.00,,,0.12,VWS V13.01,2013-05-01 21:43:00,
2013-05-01 16:48:00,41.0,-6.1,29.23,NW,307,0.0,0.0,13,0.00,,,0.12,VWS V13.01,2013-05-01 21:48:00,
2013-05-01 16:53:00,40.8,-6.2,29.23,WNW,285,0.0,0.0,13,0.00,,,0.12,VWS V13.01,2013-05-01 21:53:00,
2013-05-01 16:58:00,40.8,-6.2,29.26,WSW,247,0.0,0.0,13,0.00,,,0.12,VWS V13.01,2013-05-01 21:58:00,
2013-05-01 17:03:00,41.0,-6.1,29.26,West,281,0.0,0.0,13,0.00,,,0.12,VWS V13.01,2013-05-01 22:03:00,
2013-05-01 17:08:00,41.0,-6.1,29.26,NNW,346,0.0,0.0,13,0.00,,,0.12,VWS V13.01,2013-05-01 22:08:00,
2013-05-01 17:13:00,41.2,-5.9,29.23,NNW,336,0.0,0.0,13,0.00,,,0.12,VWS V13.01,2013-05-01 22:13:00,
2013-05-01 17:18:00,41.4,-5.8,29.23,NNW,333,0.0,0.0,13,0.00,,,0.12,VWS V13.01,2013-05-01 22:18:00,
2013-05-01 17:23:00,41.5,-5.6,29.23,WNW,286,0.0,0.0,13,0.00,,,0.12,VWS V13.01,2013-05-01 22:23:00,
2013-05-01 17:28:00,41.5,-5.6,29.23,WNW,303,0.0,0.0,13,0.00,,,0.12,VWS V13.01,2013-05-01 22:28:00,
2013-05-01 17:33:00,41.7,-5.5,29.23,NW,312,0.0,3.1,13,0.00,,,0.12,VWS V13.01,2013-05-01 22:33:00,
2013-05-01 17:38:00,41.9,-5.3,29.23,NNE,26,0.0,0.0,13,0.00,,,0.12,VWS V13.01,2013-05-01 22:38:00,
2013-05-01 17:43:00,42.1,-5.2,29.23,NNW,339,0.0,0.0,13,0.00,,,0.12,VWS V13.01,2013-05-01 22:43:00,
2013-05-01 17:48:00,42.1,-5.2,29.23,NNW,334,3.6,3.6,13,0.00,,,0.12,VWS V13.01,2013-05-01 22:48:00,
2013-05-01 17:53:00,42.1,-5.2,29.23,NW,314,2.7,3.1,13,0.00,,,0.12,VWS V13.01,2013-05-01 22:53:00,
2013-05-01 17:58:00,42.3,-5.1,29.26,WNW,289,3.1,3.1,13,0.00,,,0.12,VWS V13.01,2013-05-01 22:58:00,
2013-05-01 18:03:00,42.4,-4.9,29.26,West,261,2.7,4.0,13,0.00,,,0.12,VWS V13.01,2013-05-01 23:03:00,
2013-05-01 18:08:00,42.3,-5.1,29.26,WNW,288,2.7,3.1,13,0.00,,,0.12,VWS V13.01,2013-05-01 23:08:00,
2013-05-01 18:13:00,42.3,-5.1,29.26,NNW,339,0.0,2.7,13,0.00,,,0.12,VWS V13.01,2013-05-01 23:13:00,
2013-05-01 18:18:00,42.3,-5.1,29.26,WNW,283,2.2,4.0,13,0.00,,,0.12,VWS V13.01,2013-05-01 23:18:00,
2013-05-01 18:23:00,42.1,-5.2,29.26,NNE,19,3.1,3.1,13,0.00,,,0.12,VWS V13.01,2013-05-01 23:23:00,
2013-05-01 18:28:00,42.1,-5.2,29.23,North,353,3.1,3.1,13,0.00,,,0.12,VWS V13.01,2013-05-01 23:28:00,
2013-05-01 18:33:00,42.1,-5.2,29.23,North,353,3.6,3.6,13,0.00,,,0.12,VWS V13.01,2013-05-01 23:33:00,
2013-05-01 18:38:00,41.9,-5.3,29.23,NNW,328,2.2,2.2,13,0.00,,,0.12,VWS V13.01,2013-05-01 23:38:00,
2013-05-01 18:43:00,42.1,-5.2,29.26,West,277,2.7,2.7,13,0.00,,,0.12,VWS V13.01,2013-05-01 23:43:00,
2013-05-01 18:48:00,42.3,-5.1,29.26,WSW,256,3.1,3.1,13,0.00,,,0.12,VWS V13.01,2013-05-01 23:48:00,
2013-05-01 18:53:00,42.1,-5.2,29.26,NW,311,0.0,0.0,13,0.00,,,0.12,VWS V13.01,2013-05-01 23:53:00,
2013-05-01 18:58:00,42.1,-5.2,29.26,NW,305,3.6,3.6,13,0.00,,,0.12,VWS V13.01,2013-05-01 23:58:00,
2013-05-01 19:03:00,42.1,-5.2,29.26,NNW,330,3.6,4.0,13,0.00,,,0.12,VWS V13.01,2013-05-02 00:03:00,
2013-05-01 19:08:00,41.9,-5.3,29.26,NW,315,0.0,3.1,13,0.00,,,0.12,VWS V13.01,2013-05-02 00:08:00,
2013-05-01 19:13:00,41.7,-5.5,29.26,WNW,300,3.6,3.6,13,0.00,,,0.12,VWS V13.01,2013-05-02 00:13:00,
2013-05-01 19:18:00,41.5,-5.6,29.26,NNW,342,0.0,0.0,13,0.00,,,0.12,VWS V13.01,2013-05-02 00:18:00,
2013-05-01 19:23:00,41.4,-5.8,29.26,WNW,285,0.0,0.0,13,0.00,,,0.12,VWS V13.01,2013-05-02 00:23:00,
2013-05-01 19:28:00,41.4,-5.8,29.29,WNW,292,0.0,0.0,13,0.00,,,0.12,VWS V13.01,2013-05-02 00:28:00,
2013-05-01 19:33:00,41.2,-5.9,29.29,North,353,3.1,3.1,13,0.00,,,0.12,VWS V13.01,2013-05-02 00:33:00,
2013-05-01 19:38:00,41.5,-5.6,29.29,North,0,2.2,3.6,13,0.00,,,0.12,VWS V13.01,2013-05-02 00:38:00,
2013-05-01 19:43:00,41.4,-5.8,29.26,NW,308,3.6,3.6,13,0.00,,,0.12,VWS V13.01,2013-05-02 00:43:00,
2013-05-01 19:48:00,41.4,-5.8,29.26,NNE,29,0.0,0.0,13,0.00,,,0.12,VWS V13.01,2013-05-02 00:48:00,
2013-05-01 19:53:00,41.2,-5.9,29.26,North,350,0.0,0.0,13,0.00,,,0.12,VWS V13.01,2013-05-02 00:53:00,
2013-05-01 19:58:00,41.0,-6.1,29.29,North,0,3.1,3.1,13,0.00,,,0.12,VWS V13.01,2013-05-02 00:58:00,
2013-05-01 20:03:00,40.8,-6.2,29.29,NW,325,2.2,2.2,13,0.00,,,0.12,VWS V13.01,2013-05-02 01:03:00,
2013-05-01 20:08:00,40.6,-6.4,29.29,NNW,341,2.7,2.7,13,0.00,,,0.12,VWS V13.01,2013-05-02 01:08:00,
2013-05-01 20:13:00,40.5,-6.5,29.29,NNW,327,2.7,3.1,13,0.00,,,0.12,VWS V13.01,2013-05-02 01:13:00,
2013-05-01 20:18:00,40.5,-6.5,29.29,NNW,342,0.0,0.0,13,0.00,,,0.12,VWS V13.01,2013-05-02 01:18:00,
2013-05-01 20:23:00,40.5,-6.5,29.29,NNW,336,3.1,3.1,13,0.00,,,0.12,VWS V13.01,2013-05-02 01:23:00,
2013-05-01 20:28:00,40.5,-6.5,29.29,WNW,297,2.7,2.7,13,0.00,,,0.12,VWS V13.01,2013-05-02 01:28:00,
2013-05-01 20:33:00,40.6,-6.4,29.29,NE,34,2.7,3.6,13,0.00,,,0.12,VWS V13.01,2013-05-02 01:33:00,
2013-05-01 20:38:00,40.5,-6.5,29.29,NNW,340,2.7,3.1,13,0.00,,,0.12,VWS V13.01,2013-05-02 01:38:00,
2013-05-01 20:43:00,40.5,-6.5,29.29,North,0,4.0,4.0,13,0.00,,,0.12,VWS V13.01,2013-05-02 01:43:00,
2013-05-01 20:48:00,40.3,-6.7,29.29,WNW,297,2.7,2.7,13,0.00,,,0.12,VWS V13.01,2013-05-02 01:48:00,
2013-05-01 20:53:00,40.5,-6.5,29.29,WNW,289,0.0,0.0,13,0.00,,,0.12,VWS V13.01,2013-05-02 01:53:00,
2013-05-01 20:58:00,40.1,-6.8,29.29,NNW,329,0.0,0.0,13,0.00,,,0.12,VWS V13.01,2013-05-02 01:58:00,
2013-05-01 21:03:00,39.9,-6.9,29.29,NW,312,2.7,2.7,13,0.00,,,0.12,VWS V13.01,2013-05-02 02:03:00,
2013-05-01 21:08:00,39.9,-6.9,29.29,NNW,343,0.0,0.0,13,0.00,,,0.12,VWS V13.01,2013-05-02 02:08:00,
2013-05-01 21:13:00,39.7,-7.1,29.29,WNW,292,0.0,0.0,13,0.00,,,0.12,VWS V13.01,2013-05-02 02:13:00,
2013-05-01 21:18:00,39.6,-7.2,29.29,NW,320,0.0,0.0,13,0.00,,,0.12,VWS V13.01,2013-05-02 02:18:00,
2013-05-01 21:23:00,39.4,-7.4,29.29,NW,316,0.0,0.0,13,0.00,,,0.12,VWS V13.01,2013-05-02 02:23:00,
2013-05-01 21:28:00,39.4,-7.4,29.29,North,0,0.0,0.0,13,0.00,,,0.12,VWS V13.01,2013-05-02 02:28:00,
2013-05-01 21:33:00,39.4,-7.4,29.29,North,3,0.0,0.0,13,0.00,,,0.12,VWS V13.01,2013-05-02 02:33:00,
2013-05-01 21:38:00,39.2,-7.5,29.29,North,0,0.0,0.0,13,0.00,,,0.12,VWS V13.01,2013-05-02 02:38:00,
2013-05-01 21:43:00,39.4,-7.4,29.29,NNW,333,2.2,3.1,13,0.00,,,0.12,VWS V13.01,2013-05-02 02:43:00,
2013-05-01 21:48:00,39.4,-7.4,29.29,NNE,13,0.0,0.0,13,0.00,,,0.12,VWS V13.01,2013-05-02 02:48:00,
2013-05-01 21:53:00,39.9,-6.9,29.29,NW,311,3.1,3.6,13,0.00,,,0.12,VWS V13.01,2013-05-02 02:53:00,
2013-05-01 21:58:00,39.9,-6.9,29.29,NNE,17,0.0,3.6,13,0.00,,,0.12,VWS V13.01,2013-05-02 02:58:00,
2013-05-01 22:03:00,39.9,-6.9,29.29,North,353,3.1,3.1,13,0.00,,,0.12,VWS V13.01,2013-05-02 03:03:00,
2013-05-01 22:08:00,39.9,-6.9,29.29,NNW,339,2.7,2.7,13,0.00,,,0.12,VWS V13.01,2013-05-02 03:08:00,
2013-05-01 22:13:00,39.9,-6.9,29.29,West,281,3.6,3.6,13,0.00,,,0.12,VWS V13.01,2013-05-02 03:13:00,
2013-05-01 22:18:00,39.7,-7.1,29.29,NW,315,0.0,0.0,13,0.00,,,0.12,VWS V13.01,2013-05-02 03:18:00,
2013-05-01 22:23:00,39.7,-7.1,29.29,North,0,0.0,2.7,13,0.00,,,0.12,VWS V13.01,2013-05-02 03:23:00,
2013-05-01 22:28:00,39.7,-7.1,29.32,NW,307,2.7,3.1,13,0.00,,,0.12,VWS V13.01,2013-05-02 03:28:00,
2013-05-01 22:33:00,39.9,-6.9,29.32,NNW,335,3.1,4.5,13,0.00,,,0.12,VWS V13.01,2013-05-02 03:33:00,
2013-05-01 22:38:00,39.9,-6.9,29.32,NNW,329,0.0,2.7,13,0.00,,,0.12,VWS V13.01,2013-05-02 03:38:00,
2013-05-01 22:43:00,39.7,-7.1,29.32,NNW,329,4.9,4.9,13,0.00,,,0.12,VWS V13.01,2013-05-02 03:43:00,
2013-05-01 22:48:00,39.7,-7.1,29.32,NNW,332,2.7,3.1,13,0.00,,,0.12,VWS V13.01,2013-05-02 03:48:00,
2013-05-01 22:53:00,39.4,-7.4,29.32,NNW,345,2.2,3.1,13,0.00,,,0.12,VWS V13.01,2013-05-02 03:53:00,
2013-05-01 22:58:00,39.6,-7.2,29.32,North,1,0.0,4.0,13,0.00,,,0.12,VWS V13.01,2013-05-02 03:58:00,
2013-05-01 23:01:00,39.7,-7.1,29.32,NNW,345,3.1,5.8,13,0.00,,,0.12,VWS V13.01,2013-05-02 04:01:00,
2013-05-01 23:06:00,39.4,-7.4,29.32,NW,325,3.6,4.0,13,0.00,,,0.12,VWS V13.01,2013-05-02 04:06:00,
2013-05-01 23:11:00,39.4,-7.4,29.32,WNW,289,2.7,2.7,13,0.00,,,0.12,VWS V13.01,2013-05-02 04:11:00,
2013-05-01 23:16:00,39.4,-7.4,29.32,NNE,23,0.0,3.1,13,0.00,,,0.12,VWS V13.01,2013-05-02 04:16:00,
2013-05-01 23:21:00,39.6,-7.2,29.32,North,357,5.8,5.8,13,0.00,,,0.12,VWS V13.01,2013-05-02 04:21:00,
2013-05-01 23:26:00,39.6,-7.2,29.29,NW,322,2.7,3.1,13,0.00,,,0.12,VWS V13.01,2013-05-02 04:26:00,
2013-05-01 23:31:00,39.6,-7.2,29.29,NE,53,3.6,6.3,13,0.00,,,0.12,VWS V13.01,2013-05-02 04:31:00,
2013-05-01 23:36:00,39.4,-7.4,29.29,NNW,337,0.0,3.1,13,0.00,,,0.12,VWS V13.01,2013-05-02 04:36:00,
2013-05-01 23:41:00,39.4,-7.4,29.32,NW,321,2.2,3.1,13,0.00,,,0.12,VWS V13.01,2013-05-02 04:41:00,
2013-05-01 23:46:00,39.2,-7.5,29.32,North,0,3.6,5.4,13,0.00,,,0.12,VWS V13.01,2013-05-02 04:46:00,
2013-05-01 23:51:00,39.0,-6.1,29.32,NNW,342,3.6,6.3,14,0.00,,,0.12,VWS V13.01,2013-05-02 04:51:00,
2013-05-01 23:56:00,38.8,-6.3,29.29,NW,310,3.6,3.6,14,0.00,,,0.00,VWS V13.01,2013-05-02 04:56:00,